K5IDL Weather Reports


Display with metric or nautical units.
time (UTC)temp
F
wind
direction
speed
MPH
gust
MPH
rain 1hr
in
rain 24hr
in
rain mn
in
humidity
%
barometer
mb
20210616022022 89 192 0.0 0.0 0.00 0.00 0.00 50 1015.4
20210616021514 89 195 0.0 0.0 0.00 0.00 0.00 49 1015.4
20210616021009 89 207 0.0 0.0 0.00 0.00 0.00 48 1015.4
20210616020506 89 174 2.0 3.0 0.00 0.00 0.00 48 1015.4
20210616020001 89 189 0.0 0.0 0.00 0.00 0.00 49 1015.4
20210616015459 90 208 0.0 0.0 0.00 0.00 0.00 48 1015.4
20210616014954 90 197 0.0 0.0 0.00 0.00 0.00 48 1015.4
20210616014452 90 197 0.0 0.0 0.00 0.00 0.00 48 1015.4
20210616013945 90 197 1.0 3.0 0.00 0.00 0.00 48 1015.1
20210616013443 90 205 0.0 0.0 0.00 0.00 0.00 48 1015.1
20210616012932 90 204 0.0 0.0 0.00 0.00 0.00 48 1015.1
20210616012427 91 191 3.0 5.0 0.00 0.00 0.00 48 1014.8
20210616011925 91 226 3.0 3.0 0.00 0.00 0.00 47 1014.8
20210616011423 91 166 2.0 3.0 0.00 0.00 0.00 46 1014.8
20210616010918 91 210 0.0 0.0 0.00 0.00 0.00 47 1014.8
20210616010411 91 201 1.0 3.0 0.00 0.00 0.00 47 1014.8
20210616005902 91 190 0.0 3.0 0.00 0.00 0.00 48 1015.1
20210616005358 92 226 2.0 3.0 0.00 0.00 0.00 49 1015.1
20210616004854 92 183 0.0 0.0 0.00 0.00 0.00 49 1014.8
20210616004353 92 178 1.0 3.0 0.00 0.00 0.00 47 1014.8
20210616003849 92 206 0.0 0.0 0.00 0.00 0.00 47 1014.8
20210616003347 92 205 0.0 0.0 0.00 0.00 0.00 47 1014.8
20210616002844 92 226 3.0 3.0 0.00 0.00 0.00 47 1014.8
20210616002341 92 187 1.0 3.0 0.00 0.00 0.00 47 1014.8
20210616001837 92 213 3.0 5.0 0.00 0.00 0.00 47 1014.8
20210616001335 93 199 1.0 3.0 0.00 0.00 0.00 47 1014.8
20210616000821 93 188 0.0 0.0 0.00 0.00 0.00 48 1014.8
20210616000320 93 199 0.0 3.0 0.00 0.00 0.00 46 1014.8
20210615235815 93 188 0.0 0.0 0.00 0.00 0.00 46 1014.8
20210615235312 93 177 0.0 0.0 0.00 0.00 0.00 47 1014.8
20210615234810 93 152 1.0 3.0 0.00 0.00 0.00 46 1014.8
20210615234305 93 199 1.0 3.0 0.00 0.00 0.00 46 1014.8
20210615233804 93 195 1.0 3.0 0.00 0.00 0.00 45 1014.8
20210615233258 93 282 0.0 0.0 0.00 0.00 0.00 44 1014.8
20210615232749 93 186 0.0 3.0 0.00 0.00 0.00 45 1014.8
20210615232242 93 209 0.0 3.0 0.00 0.00 0.00 45 1014.8
20210615231734 93 222 3.0 3.0 0.00 0.00 0.00 44 1014.8
20210615231233 93 205 4.0 5.0 0.00 0.00 0.00 46 1014.8
20210615230731 93 182 0.0 0.0 0.00 0.00 0.00 45 1014.8
20210615230225 94 170 3.0 5.0 0.00 0.00 0.00 45 1015.1
20210615225720 94 202 4.0 7.0 0.00 0.00 0.00 45 1014.8
20210615225218 94 190 0.0 3.0 0.00 0.00 0.00 45 1015.1
20210615224710 94 222 5.0 7.0 0.00 0.00 0.00 45 1015.1
20210615224207 94 207 4.0 7.0 0.00 0.00 0.00 47 1015.1
20210615223701 94 260 0.0 0.0 0.00 0.00 0.00 43 1015.4
20210615223156 94 203 2.0 3.0 0.00 0.00 0.00 44 1015.4
20210615222652 94 200 3.0 5.0 0.00 0.00 0.00 42 1015.4
20210615222152 94 228 2.0 3.0 0.00 0.00 0.00 44 1015.4
20210615221646 94 151 0.0 3.0 0.00 0.00 0.00 43 1015.4
20210615221142 94 204 0.0 3.0 0.00 0.00 0.00 42 1015.4
20210615220637 94 236 3.0 5.0 0.00 0.00 0.00 43 1015.4
20210615220135 94 230 3.0 5.0 0.00 0.00 0.00 45 1015.4
20210615215632 94 243 4.0 5.0 0.00 0.00 0.00 45 1015.8
20210615215130 94 241 3.0 3.0 0.00 0.00 0.00 45 1015.8
20210615214627 94 187 0.0 0.0 0.00 0.00 0.00 44 1015.8
20210615214122 94 206 3.0 3.0 0.00 0.00 0.00 47 1015.8
20210615213617 94 194 3.0 5.0 0.00 0.00 0.00 45 1015.8
20210615213111 95 202 5.0 7.0 0.00 0.00 0.00 44 1016.1
20210615212610 95 220 4.0 5.0 0.00 0.00 0.00 46 1015.8
20210615212104 94 228 4.0 5.0 0.00 0.00 0.00 45 1015.8
20210615211605 94 219 3.0 5.0 0.00 0.00 0.00 44 1016.1
20210615211058 94 208 0.0 0.0 0.00 0.00 0.00 47 1015.8
20210615210556 94 160 0.0 0.0 0.00 0.00 0.00 45 1016.1
20210615210053 94 243 6.0 7.0 0.00 0.00 0.00 46 1016.1
20210615205551 94 220 3.0 5.0 0.00 0.00 0.00 44 1016.1
20210615205041 94 225 1.0 3.0 0.00 0.00 0.00 45 1016.5
20210615204539 94 182 1.0 3.0 0.00 0.00 0.00 45 1016.5
20210615204037 94 235 3.0 5.0 0.00 0.00 0.00 45 1016.5
20210615203537 94 180 1.0 3.0 0.00 0.00 0.00 46 1016.5
20210615203036 94 218 5.0 7.0 0.00 0.00 0.00 46 1016.5
20210615202534 94 249 7.0 7.0 0.00 0.00 0.00 46 1016.5
20210615202031 94 185 1.0 5.0 0.00 0.00 0.00 45 1016.5
20210615201532 94 180 0.0 0.0 0.00 0.00 0.00 47 1016.5
20210615201030 94 281 2.0 3.0 0.00 0.00 0.00 48 1016.5
20210615200526 94 116 0.0 0.0 0.00 0.00 0.00 47 1016.9
20210615200022 94 222 3.0 5.0 0.00 0.00 0.00 46 1016.5
20210615195517 95 189 3.0 5.0 0.00 0.00 0.00 48 1016.9
20210615195002 95 176 1.0 3.0 0.00 0.00 0.00 45 1016.9
20210615194452 95 193 3.0 5.0 0.00 0.00 0.00 47 1016.9
20210615193950 95 156 2.0 3.0 0.00 0.00 0.00 47 1016.9
20210615193449 95 187 0.0 0.0 0.00 0.00 0.00 46 1016.9
20210615192949 95 207 3.0 5.0 0.00 0.00 0.00 49 1016.9
20210615192444 95 219 4.0 5.0 0.00 0.00 0.00 47 1016.9
20210615191939 95 314 4.0 5.0 0.00 0.00 0.00 46 1016.9
20210615191436 95 174 0.0 0.0 0.00 0.00 0.00 45 1016.9
20210615190934 95 250 3.0 3.0 0.00 0.00 0.00 46 1016.9
20210615190434 94 210 0.0 3.0 0.00 0.00 0.00 48 1017.2
20210615185929 94 199 0.0 0.0 0.00 0.00 0.00 45 1017.2
20210615185421 94 121 0.0 0.0 0.00 0.00 0.00 44 1017.2
20210615184919 94 121 0.0 0.0 0.00 0.00 0.00 44 1017.2
20210615184404 94 190 0.0 0.0 0.00 0.00 0.00 44 1017.6
20210615183904 93 143 0.0 0.0 0.00 0.00 0.00 45 1017.6
20210615183359 93 200 0.0 3.0 0.00 0.00 0.00 46 1017.6
20210615182858 93 208 4.0 5.0 0.00 0.00 0.00 46 1017.6
20210615182353 93 187 1.0 3.0 0.00 0.00 0.00 45 1017.6
20210615181841 93 231 4.0 7.0 0.00 0.00 0.00 48 1017.6
20210615181334 93 226 5.0 5.0 0.00 0.00 0.00 48 1017.6
20210615180828 93 207 3.0 5.0 0.00 0.00 0.00 49 1017.6
20210615180325 93 207 4.0 5.0 0.00 0.00 0.00 48 1017.6
20210615175824 94 241 3.0 5.0 0.00 0.00 0.00 47 1017.6
20210615175325 93 196 3.0 5.0 0.00 0.00 0.00 46 1017.6
20210615174821 93 203 3.0 5.0 0.00 0.00 0.00 48 1017.6
20210615174318 93 212 4.0 5.0 0.00 0.00 0.00 48 1017.6
20210615173815 93 224 3.0 5.0 0.00 0.00 0.00 48 1017.6
20210615173312 93 208 4.0 5.0 0.00 0.00 0.00 49 1017.6
20210615172809 93 114 0.0 0.0 0.00 0.00 0.00 48 1017.6
20210615172305 92 142 0.0 0.0 0.00 0.00 0.00 49 1017.6
20210615171535 92 122 1.0 3.0 0.00 0.00 0.00 52 1017.6
20210615171032 93 212 3.0 5.0 0.00 0.00 0.00 52 1017.6
20210615170529 93 199 1.0 3.0 0.00 0.00 0.00 53 1017.6
20210615170026 93 222 7.0 10.0 0.00 0.00 0.00 52 1017.6
20210615165520 93 59 1.0 3.0 0.00 0.00 0.00 52 1017.6
20210615165019 94 221 5.0 5.0 0.00 0.00 0.00 50 1017.6
20210615164518 94 307 0.0 3.0 0.00 0.00 0.00 50 1017.6
20210615164013 93 209 3.0 5.0 0.00 0.00 0.00 51 1017.6
20210615163509 93 210 1.0 3.0 0.00 0.00 0.00 54 1017.6
20210615163006 93 235 4.0 5.0 0.00 0.00 0.00 54 1017.6
20210615162504 93 231 0.0 3.0 0.00 0.00 0.00 51 1017.6
20210615162000 93 165 0.0 0.0 0.00 0.00 0.00 52 1017.6
20210615161457 92 214 1.0 3.0 0.00 0.00 0.00 53 1017.6
20210615160956 92 223 0.0 0.0 0.00 0.00 0.00 54 1017.6
20210615160453 92 220 1.0 3.0 0.00 0.00 0.00 51 1017.6
20210615155948 92 288 2.0 5.0 0.00 0.00 0.00 54 1017.6
20210615155449 93 220 3.0 5.0 0.00 0.00 0.00 58 1017.6
20210615154946 92 308 0.0 3.0 0.00 0.00 0.00 55 1017.6
20210615154439 92 213 3.0 3.0 0.00 0.00 0.00 58 1017.6
20210615153939 92 214 0.0 0.0 0.00 0.00 0.00 53 1017.6
20210615153437 92 208 2.0 3.0 0.00 0.00 0.00 56 1017.6
20210615152931 91 235 0.0 0.0 0.00 0.00 0.00 56 1017.6
20210615152428 91 206 2.0 3.0 0.00 0.00 0.00 54 1017.6
20210615151928 91 187 1.0 3.0 0.00 0.00 0.00 57 1017.6
20210615151418 91 221 0.0 0.0 0.00 0.00 0.00 56 1017.6
20210615150913 91 212 2.0 3.0 0.00 0.00 0.00 60 1017.6
20210615150413 91 177 0.0 3.0 0.00 0.00 0.00 57 1017.6
20210615145908 91 228 2.0 3.0 0.00 0.00 0.00 55 1017.6
20210615145401 91 202 3.0 5.0 0.00 0.00 0.00 55 1017.6
20210615144857 90 166 0.0 0.0 0.00 0.00 0.00 54 1017.6
20210615144353 90 213 1.0 3.0 0.00 0.00 0.00 56 1017.6
20210615143850 89 330 0.0 3.0 0.00 0.00 0.00 54 1017.6
20210615143343 88 211 5.0 7.0 0.00 0.00 0.00 55 1017.6
20210615142836 88 204 0.0 0.0 0.00 0.00 0.00 58 1017.6
20210615142328 87 224 2.0 3.0 0.00 0.00 0.00 58 1017.6
20210615141820 87 228 1.0 3.0 0.00 0.00 0.00 62 1017.6
20210615141316 87 212 3.0 3.0 0.00 0.00 0.00 62 1017.6
20210615140811 86 203 0.0 0.0 0.00 0.00 0.00 61 1017.6
20210615140307 86 210 0.0 3.0 0.00 0.00 0.00 61 1017.6
20210615135802 85 213 0.0 3.0 0.00 0.00 0.00 66 1017.6
20210615135257 84 209 2.0 3.0 0.00 0.00 0.00 66 1017.6
20210615134754 84 193 0.0 0.0 0.00 0.00 0.00 67 1017.6
20210615134250 83 201 0.0 0.0 0.00 0.00 0.00 68 1017.6
20210615133746 83 248 2.0 3.0 0.00 0.00 0.00 68 1017.6
20210615133241 83 201 0.0 0.0 0.00 0.00 0.00 71 1017.6
20210615132738 84 179 0.0 0.0 0.00 0.00 0.00 74 1017.6
20210615132237 84 186 0.0 3.0 0.00 0.00 0.00 73 1017.6
20210615131732 84 222 2.0 3.0 0.00 0.00 0.00 73 1017.6
20210615131225 84 221 4.0 5.0 0.00 0.00 0.00 72 1017.2
20210615130718 84 189 0.0 0.0 0.00 0.00 0.00 70 1017.2
20210615130215 83 199 0.0 0.0 0.00 0.00 0.00 66 1017.2
20210615125708 82 199 0.0 0.0 0.00 0.00 0.00 71 1016.9
20210615125204 81 154 0.0 0.0 0.00 0.00 0.00 76 1016.9
20210615124656 80 162 0.0 0.0 0.00 0.00 0.00 73 1016.9
20210615124151 79 176 0.0 0.0 0.00 0.00 0.00 75 1016.9
20210615123646 77 184 0.0 0.0 0.00 0.00 0.00 74 1016.9
20210615123145 76 170 0.0 0.0 0.00 0.00 0.00 82 1016.9
20210615122639 75 160 0.0 0.0 0.00 0.00 0.00 83 1016.9
20210615122139 74 160 0.0 0.0 0.00 0.00 0.00 85 1016.9
20210615121635 73 187 0.0 0.0 0.00 0.00 0.00 87 1016.9
20210615121132 73 179 0.0 0.0 0.00 0.00 0.00 90 1016.9
20210615120629 73 171 0.0 0.0 0.00 0.00 0.00 91 1016.9
20210615120124 72 170 0.0 0.0 0.00 0.00 0.00 92 1016.5
20210615115622 72 179 0.0 0.0 0.00 0.00 0.00 93 1016.5
20210615115121 72 186 0.0 0.0 0.00 0.00 0.00 93 1016.5
20210615114617 72 174 0.0 0.0 0.00 0.00 0.00 93 1016.5
20210615114113 72 175 0.0 0.0 0.00 0.00 0.00 94 1016.5
20210615113610 72 180 0.0 0.0 0.00 0.00 0.00 94 1016.5
20210615113111 72 175 0.0 0.0 0.00 0.00 0.00 93 1016.5
20210615112606 72 180 0.0 0.0 0.00 0.00 0.00 93 1016.1
20210615112102 73 174 0.0 0.0 0.00 0.00 0.00 93 1016.1
20210615111558 73 172 0.0 0.0 0.00 0.00 0.00 93 1016.1
20210615111049 73 172 0.0 0.0 0.00 0.00 0.00 93 1015.8
20210615110544 73 174 0.0 0.0 0.00 0.00 0.00 93 1015.8
20210615110035 73 179 0.0 0.0 0.00 0.00 0.00 93 1015.8
20210615105525 73 174 0.0 0.0 0.00 0.00 0.00 92 1015.8
20210615105018 73 182 0.0 0.0 0.00 0.00 0.00 92 1015.8
20210615104516 73 175 0.0 0.0 0.00 0.00 0.00 92 1015.8
20210615104014 73 175 0.0 0.0 0.00 0.00 0.00 92 1015.8
20210615103509 73 175 0.0 0.0 0.00 0.00 0.00 92 1015.8
20210615103005 73 175 0.0 0.0 0.00 0.00 0.00 91 1015.8
20210615102502 73 186 0.0 0.0 0.00 0.00 0.00 92 1015.8
20210615101957 73 169 0.0 0.0 0.00 0.00 0.00 92 1015.8
20210615101455 73 169 0.0 0.0 0.00 0.00 0.00 92 1015.8
20210615100953 73 169 0.0 0.0 0.00 0.00 0.00 92 1015.8
20210615100452 74 169 0.0 0.0 0.00 0.00 0.00 92 1015.4
20210615095947 74 168 0.0 0.0 0.00 0.00 0.00 91 1015.8
20210615095441 74 170 0.0 0.0 0.00 0.00 0.00 92 1015.4
20210615094939 74 206 0.0 0.0 0.00 0.00 0.00 91 1015.4
20210615094435 74 207 0.0 0.0 0.00 0.00 0.00 91 1015.4
20210615093932 74 207 0.0 0.0 0.00 0.00 0.00 91 1015.4
20210615093431 74 207 0.0 0.0 0.00 0.00 0.00 91 1015.4
20210615092927 74 207 0.0 0.0 0.00 0.00 0.00 90 1015.4
20210615092422 74 208 0.0 0.0 0.00 0.00 0.00 90 1015.4
20210615091920 74 208 0.0 0.0 0.00 0.00 0.00 90 1015.4
20210615091418 75 208 0.0 0.0 0.00 0.00 0.00 90 1015.4
20210615090918 75 208 0.0 0.0 0.00 0.00 0.00 90 1015.4
20210615090402 75 208 0.0 0.0 0.00 0.00 0.00 90 1015.4
20210615085858 75 208 0.0 0.0 0.00 0.00 0.00 89 1015.4
20210615085353 75 208 0.0 0.0 0.00 0.00 0.00 89 1015.4
20210615084849 75 208 0.0 0.0 0.00 0.00 0.00 89 1015.1
20210615084347 75 208 0.0 0.0 0.00 0.00 0.00 89 1015.4
20210615083841 75 208 0.0 0.0 0.00 0.00 0.00 89 1015.1
20210615083338 75 208 0.0 0.0 0.00 0.00 0.00 89 1015.1
20210615082832 75 208 0.0 0.0 0.00 0.00 0.00 89 1015.4
20210615082327 75 209 0.0 0.0 0.00 0.00 0.00 89 1015.4
20210615081826 76 209 0.0 0.0 0.00 0.00 0.00 89 1015.4
20210615081323 76 209 0.0 0.0 0.00 0.00 0.00 88 1015.4
20210615080822 76 209 0.0 0.0 0.00 0.00 0.00 88 1015.4
20210615080316 76 209 0.0 0.0 0.00 0.00 0.00 88 1015.4
20210615075812 76 209 0.0 0.0 0.00 0.00 0.00 88 1015.1
20210615075310 76 209 0.0 0.0 0.00 0.00 0.00 88 1015.4
20210615074809 77 209 0.0 0.0 0.00 0.00 0.00 87 1015.4
20210615074309 77 209 0.0 0.0 0.00 0.00 0.00 87 1015.4
20210615073805 77 209 0.0 0.0 0.00 0.00 0.00 87 1015.1
20210615073300 77 209 0.0 0.0 0.00 0.00 0.00 86 1015.4
20210615072758 77 209 0.0 0.0 0.00 0.00 0.00 86 1015.4
20210615072241 78 209 0.0 0.0 0.00 0.00 0.00 85 1015.4
20210615071740 78 210 0.0 0.0 0.00 0.00 0.00 85 1015.4
20210615071231 78 209 0.0 0.0 0.00 0.00 0.00 84 1015.4
20210615070731 78 209 0.0 0.0 0.00 0.00 0.00 83 1015.4
20210615070219 79 209 0.0 0.0 0.00 0.00 0.00 83 1015.4
20210615065716 79 209 0.0 0.0 0.00 0.00 0.00 82 1015.4
20210615065211 79 209 0.0 0.0 0.00 0.00 0.00 82 1015.4
20210615064708 79 209 0.0 0.0 0.00 0.00 0.00 81 1015.4
20210615064203 79 210 0.0 0.0 0.00 0.00 0.00 80 1015.4
20210615063703 79 210 0.0 0.0 0.00 0.00 0.00 79 1015.4
20210615063159 80 210 0.0 0.0 0.00 0.00 0.00 78 1015.4
20210615062654 80 210 0.0 0.0 0.00 0.00 0.00 78 1015.4
20210615062143 80 210 0.0 0.0 0.00 0.00 0.00 77 1015.4
20210615061639 80 211 0.0 0.0 0.00 0.00 0.00 77 1015.4
20210615061136 80 211 0.0 0.0 0.00 0.00 0.00 76 1015.4
20210615060629 80 208 0.0 0.0 0.00 0.00 0.00 77 1015.4
20210615060123 80 208 0.0 0.0 0.00 0.00 0.00 77 1015.4
20210615055621 80 209 0.0 0.0 0.00 0.00 0.00 76 1015.4
20210615055116 80 209 0.0 0.0 0.00 0.00 0.00 76 1015.4
20210615054609 81 212 0.0 0.0 0.00 0.00 0.00 76 1015.4
20210615054106 81 212 0.0 0.0 0.00 0.00 0.00 76 1015.4
20210615053602 81 212 0.0 0.0 0.00 0.00 0.00 75 1015.4
20210615053100 81 191 0.0 0.0 0.00 0.00 0.00 75 1015.4
20210615052558 81 191 0.0 0.0 0.00 0.00 0.00 75 1015.4
20210615052056 81 191 0.0 0.0 0.00 0.00 0.00 75 1015.4
20210615051550 81 191 0.0 0.0 0.00 0.00 0.00 75 1015.4
20210615051048 81 191 0.0 0.0 0.00 0.00 0.00 74 1015.4
20210615050539 82 199 0.0 0.0 0.00 0.00 0.00 73 1015.4
20210615050037 82 174 0.0 0.0 0.00 0.00 0.00 73 1015.8
20210615045535 82 199 0.0 0.0 0.00 0.00 0.00 72 1015.4
20210615045033 82 180 0.0 0.0 0.00 0.00 0.00 73 1015.4
20210615044531 82 198 0.0 0.0 0.00 0.00 0.00 73 1015.4
20210615044027 82 187 0.0 0.0 0.00 0.00 0.00 72 1015.4
20210615043526 82 162 0.0 0.0 0.00 0.00 0.00 72 1015.4
20210615043020 82 210 1.0 3.0 0.00 0.00 0.00 71 1015.4
20210615042519 82 211 0.0 0.0 0.00 0.00 0.00 71 1015.4
20210615042016 83 175 0.0 0.0 0.00 0.00 0.00 71 1015.4
20210615041510 83 232 0.0 0.0 0.00 0.00 0.00 71 1015.4
20210615041007 83 215 0.0 0.0 0.00 0.00 0.00 71 1015.4
20210615040505 83 199 0.0 0.0 0.00 0.00 0.00 71 1015.4
20210615040002 83 197 0.0 0.0 0.00 0.00 0.00 70 1015.4
20210615035458 83 222 0.0 0.0 0.00 0.00 0.00 70 1015.4
20210615034954 84 231 0.0 3.0 0.00 0.00 0.00 69 1015.4
20210615034451 84 225 1.0 3.0 0.00 0.00 0.00 69 1015.4
20210615033948 84 233 0.0 3.0 0.00 0.00 0.00 68 1015.4
20210615033444 84 182 0.0 0.0 0.00 0.00 0.00 68 1015.4
20210615032941 84 226 1.0 3.0 0.00 0.00 0.00 67 1015.4
20210615032440 84 215 0.0 0.0 0.00 0.00 0.00 66 1015.4
20210615031936 84 208 0.0 3.0 0.00 0.00 0.00 66 1015.4
20210615031428 84 227 0.0 0.0 0.00 0.00 0.00 66 1015.4
20210615030926 85 198 3.0 5.0 0.00 0.00 0.00 65 1015.1
20210615030424 85 218 3.0 5.0 0.00 0.00 0.00 65 1015.1
20210615025922 85 192 0.0 3.0 0.00 0.00 0.00 65 1015.1
20210615025417 85 214 1.0 3.0 0.00 0.00 0.00 65 1015.1
20210615024913 86 213 0.0 3.0 0.00 0.00 0.00 64 1015.1
20210615024407 86 221 1.0 3.0 0.00 0.00 0.00 64 1014.8
20210615023901 86 180 0.0 0.0 0.00 0.00 0.00 63 1014.8
20210615023358 86 185 0.0 0.0 0.00 0.00 0.00 63 1014.8
20210615022849 86 221 0.0 0.0 0.00 0.00 0.00 63 1014.8
20210615022342 87 200 0.0 0.0 0.00 0.00 0.00 63 1014.8